Regional Weather Roundup
Issued by NWS Boston, MA

Current Version | Previous Version | Text Only | Print | Product List | Glossary Off
Versions: 1 2 3 4 5 6 7 8 9 10 11 12 13 14 15 16 17 18 19 20 21 22 23 24 25 26 27 28 29 30 31 32 33 34 35 36 37 38 39 40 41 42 43 44 45 46 47 48 49 50
000 ASUS41 KBOX 260810 RWRBOX REGIONAL WEATHER ROUNDUP NATIONAL WEATHER SERVICE TAUNTON MA 400 AM EDT MON JUN 26 2017 NOTE: "FAIR" INDICATES FEW OR NO CLOUDS BELOW 12,000 FEET WITH NO SIGNIFICANT WEATHER AND/OR OBSTRUCTIONS TO VISIBILITY. MAZALL-260900- EASTERN MASSACHUSETTS CITY SKY/WX TMP DP RH WIND PRES REMARKS BOSTON PTCLDY 65 53 65 W10 29.92S BEVERLY CLEAR 58 57 97 SW5 29.92S LAWRENCE CLEAR 61 58 90 SW5 29.94S BEDFORD CLEAR 57 54 89 W5 29.93R BLUE HILL N/A 61 51 70 W12 29.93S NORWOOD MOCLDY 57 55 93 CALM 29.92F MARSHFIELD CLOUDY 63 57 82 VRB5 29.92S PLYMOUTH CLOUDY 62 55 77 W5 29.94R TAUNTON MOCLDY 58 55 90 CALM 29.93F NEW BEDFORD CLOUDY 62 55 77 VRB3 29.93S $$ MAZALL-260900- CAPE COD AND THE ISLANDS CITY SKY/WX TMP DP RH WIND PRES REMARKS FALMOUTH MOCLDY 61 55 82 NW5 29.94S HYANNIS PTCLDY 62 58 86 CALM 29.92R CHATHAM PTCLDY 62 60 93 CALM 29.93S PROVINCETOWN CLOUDY 61 55 81 W8 29.93R NANTUCKET MOCLDY 63 62 97 W5 29.93S MARTHAS VNYRD CLEAR 59 56 89 W3 29.94R $$ MAZALL-260900- CENTRAL AND WESTERN MASSACHUSETTS CITY SKY/WX TMP DP RH WIND PRES REMARKS WORCESTER CLEAR 56 51 84 W12 29.96S FITCHBURG CLEAR 59 54 83 W3 29.95R ORANGE PTCLDY 54 54 100 S5 29.96S SPRINGFIELD CLEAR 56 53 87 CALM 29.95F WESTFIELD CLEAR 58 52 80 NW7 N/A NORTH ADAMS PTCLDY 52 52 100 CALM 29.97S FOG PITTSFIELD CLEAR 54 50 86 CALM 29.97F $$ RIZALL-260900- RHODE ISLAND CITY SKY/WX TMP DP RH WIND PRES REMARKS PROVIDENCE MOCLDY 63 56 78 W5 29.94F NEWPORT CLEAR 62 57 83 NW3 29.94S BLOCK ISLAND CLEAR 63 57 81 N6 29.96S WESTERLY CLEAR 62 57 83 CALM 29.95F $$ CTZALL-260900- CONNECTICUT CITY SKY/WX TMP DP RH WIND PRES REMARKS BRADLEY INTL PTCLDY 57 54 89 CALM 29.96F HARTFORD CLEAR 59 56 89 CALM 29.95F BRIDGEPORT CLEAR 63 54 72 CALM 29.98R GROTON CLEAR 62 55 77 CALM 29.95S NEW HAVEN NOT AVBL CHESTER FAIR 59 55 88 CALM 29.97R MERIDEN CLEAR 57 55 93 W3 29.96S WILLIMANTIC CLEAR 60 57 89 CALM 29.96F OXFORD CLEAR 55 48 76 CALM 29.98S $$ MEZ002-015-021-024-NHZ003-005-008-011-012-014-VTZ005-008-260900- NORTHERN NEW ENGLAND CITY SKY/WX TMP DP RH WIND PRES REMARKS PORTLAND ME CLOUDY 60 54 80 W6 29.88S BANGOR ME PTCLDY 57 56 96 CALM 29.85S CONCORD NH MOCLDY 63 49 60 W7 29.92R MANCHESTER NH PTCLDY 63 50 62 SW3 29.92R NASHUA NH CLEAR 57 56 96 CALM 29.94R PORTSMOUTH NH PTCLDY 62 54 75 SW8 29.89R JAFFREY NH PTCLDY 56 54 93 S6 29.95S KEENE NH MOCLDY 58 53 84 CALM 29.95S BURLINGTON VT CLEAR 57 49 74 S5 29.92R MT. WASHINGTON FOG 36 36 100 W53 N/A VSB 0 WCI 19 $$ NYZ052-076-260900- EASTERN NEW YORK CITY SKY/WX TMP DP RH WIND PRES REMARKS ALBANY CLEAR 54 52 93 NW5 29.98S NEW YORK CITY PTCLDY 68 51 54 NW8 29.99R $$ ANZALL-260900- MARINE OBSERVATIONS STATION/POSITION TIME TEMP WIND PRES VSBY WAVE AIR SEA DIR/SP/G HT/PER (UTC) (F) (DEG/KT/KT) (MB) (MI) (FT/S) BOSTON BUOY 0750 60 59 260/ 10/ 10 1012.7S 1/ 9 BUZZARDS BAY 0700 66 350/ 7/ 7 1014.1F NANTUCKET SOUND 0750 65 1013.2S 1 MASS BAY-STELLWA 0704 62 59 260/ 10/ 12 1011.9F 1/ 6 ISLE OF SHOALS 0700 63 260/ 14/ 15 1011.9F S OF BLOCK IS 0755 64 N/A 3/ 8 $$ ......................KEY......................... SKY/WX - SKY CONDITION/PRESENT WEATHER TMP - TEMPERATURE IN FAHRENHEIT DWPT - DEWPOINT IN FAHRENHEIT RH - RELATIVE HUMIDITY IN PERCENT WIND - DIRECTION AND SPEED IN MPH PRES - MEAN SEA LEVEL PRESSURE IN INCHES OF HG WCI - WIND CHILL INDEX VSB - VISIBILITY IN MILES HX - HEAT INDEX TC - TEMPERATURE IN CELSIUS VRB - VARIABLE WIND DIRECTION N/A - NOT AVAILABLE

USA.gov is the U.S. government's official web portal to all federal, state and local government web resources and services.